User: anonymous   Login
Location: Unspecified
(0.0000°N, 0.0000°E)
Time: 08:26:16
(UTC+00:00)
Language:

HO-68 - Orbit

View from above orbital plane
View from above orbital plane
View from above satellite
View from above satellite

Ground track
Ground track

The orbit data is extracted from the following two-line orbital elements,

1 36122U 09072B   15125.60411081 -.00000060  00000-0 -43517-4 0  9999
2 36122 100.1980 171.9216 0007121 214.4005 145.6651 13.16326546258852
Epoch (UTC): 05 May 2015 14:29:55
Eccentricity: 0.0007121
inclination: 100.1980°
perigee height: 1193 km
apogee height: 1204 km
right ascension of ascending node: 171.9216°
argument of perigee: 214.4005°
revolutions per day: 13.16326546
mean anomaly at epoch: 145.6651°
orbit number at epoch: 25885

The dashed part of the orbit path shows where the satellite is in the earth's shadow,  

DLR